Regional Weather Roundup
Issued by NWS

Home | Current Version | Previous Version | Text Only | Print | Product List | Glossary Off
Versions: 1 2 3 4 5 6 7 8 9 10 11 12 13 14 15 16 17 18 19 20 21 22 23 24 25 26 27 28 29 30 31 32 33 34 35 36 37 38 39 40 41 42 43 44 45 46 47 48 49 50

000
ASUS43 KMKX 272000
RWRWI

WISCONSIN REGIONAL WEATHER ROUNDUP
NATIONAL WEATHER SERVICE MILWAUKEE/SULLIVAN WI
300 PM CDT FRI MAY 27 2016

NOTE: "FAIR" INDICATES FEW OR NO CLOUDS BELOW 12,000 FEET WITH NO
SIGNIFICANT WEATHER AND/OR OBSTRUCTIONS TO VISIBILITY.

WIZ001-002-006>008-014>016-023>028-272100-
NORTHWEST WISCONSIN

CITY           SKY/WX    TMP DP  RH WIND       PRES   REMARKS
SUPERIOR ARPT  CLOUDY    48  47  96 NE8       29.89F
ASHLAND        CLOUDY    53  49  86 N9        29.88F
HAYWARD        CLOUDY    65  56  72 N6        29.84F
SIREN          LGT RAIN  65  62  90 NE7       29.82F
CUMBERLAND     LGT RAIN  63  57  82 E6        29.82S
RICE LAKE      RAIN      66  59  76 NE5       29.83R
CHETEK         LGT RAIN  66  62  86 E5        29.82R
LADYSMITH      LGT RAIN  67  60  75 NE7       29.84F
EAU CLAIRE     NOT AVBL
MENOMONIE      RAIN      67  66  97 E6        29.79F
NEW RICHMOND   LGT RAIN  65  63  92 NE6       29.80F
OSCEOLA        LGT RAIN  65  65 100 N5        29.82F
$$

WIZ003>005-009-010-017-018-272100-
NORTH CENTRAL WISCONSIN

CITY           SKY/WX    TMP DP  RH WIND       PRES   REMARKS
MANITOWISH WTR NOT AVBL
ARBOR VITAE    CLOUDY    72  62  71 E6        29.86F
WOODRUFF       CLOUDY    72  62  71 E6        29.86F
RHINELANDER    CLOUDY    73  60  63 SE12      29.87F
EAGLE RIVER      N/A     73  58  59 E10       29.88F
LAND O LAKES   CLOUDY    72  59  63 E7        29.90F
PHILLIPS       RAIN      68  60  76 NE6       29.84F
TOMAHAWK       CLOUDY    73  60  64 SE7       29.85F
MEDFORD        CLOUDY    71  61  71 SE7       29.83S
MERRILL        CLOUDY    72  63  73 E14       29.85F
$$

WIZ029-030-035-036-043>047-272100-
CENTRAL WISCONSIN

CITY           SKY/WX    TMP DP  RH WIND       PRES   REMARKS
WAUSAU         CLOUDY    74  58  57 E18G29    29.82S
MOSINEE        PTSUNNY   72  63  73 SE12G17   29.85S
MARSHFIELD     CLOUDY    75  62  64 SE13      29.80F
STEVENS POINT  CLOUDY    70  63  76 E14       29.85R
WAUPACA        CLOUDY    74  67  78 E8        29.85S
WAUTOMA        LGT RAIN  74  66  76 E6        29.83F
WISC RAPIDS    CLOUDY    74  61  63 SE12      29.82F
CAMP DOUGLAS   PTSUNNY   75  75 100 SE6       29.80F
$$

WIZ011>013-019>022-031-037>040-048>050-272100-
NORTHEAST WISCONSIN

CITY           SKY/WX    TMP DP  RH WIND       PRES   REMARKS
ANTIGO         CLOUDY    67  62  83 SE10      29.88F
SHAWANO        CLOUDY    70  66  88 E6        29.87S
OCONTO         CLOUDY   N/A N/A N/A E5        29.87F
STURGEON BAY   NOT AVBL
GREEN BAY      CLOUDY    70  66  87 NE7       29.85F
MANITOWOC      PTSUNNY   55  54  94 SE9       29.89F FOG
APPLETON       CLOUDY    72  66  83 E6        29.84F
CLINTONVILLE   CLOUDY    70  63  78 E7        29.86S
OSHKOSH        MOSUNNY   72  65  78 E8        29.83F
$$

WIZ032>034-041-042-053>061-272100-
SOUTHWEST WISCONSIN

CITY           SKY/WX    TMP DP  RH WIND       PRES   REMARKS
LA CROSSE      CLOUDY    75  63  66 SE12      29.76F
SPARTA         CLOUDY    76  64  65 S16       29.80S
VIROQUA        CLOUDY    71  64  78 S10       29.81F
BOSCOBEL       PTSUNNY   79  65  62 S9G20     29.77F HX  81
PRAIRIE DU CHI CLOUDY    74  64  69 SE6       29.76F
PLATTEVILLE    CLOUDY    74  69  86 S14       29.80F
$$

WIZ056-057-062-063-064-067-068-272100-
SOUTH CENTRAL WISCONSIN

CITY           SKY/WX    TMP DP  RH WIND       PRES   REMARKS
REEDSBURG      CLOUDY    76  66  71 E3        29.80F
BARABOO/DELLS  LGT RAIN  75  63  66 E3        29.80F
LONE ROCK      RAIN      72  67  84 CALM      29.79F
MINERAL POINT  PTSUNNY   75  68  78 SW16      29.80F
MADISON        LGT RAIN  72  65  78 SE14G31   29.79F
MIDDLETON      CLOUDY    77  65  66 SE6       29.80F
WATERTOWN      CLOUDY    79  68  68 SE7       29.81F HX  82
MONROE         CLOUDY    79  61  53 S20       29.80F HX  80
JANESVILLE     CLOUDY    82  63  51 S16G22    29.80F HX  83
$$

WIZ051-052-058>065-066-070>072-272100-
SOUTHEAST WISCONSIN

CITY           SKY/WX    TMP DP  RH WIND       PRES   REMARKS
MILWAUKEE      CLOUDY    75  65  70 SE16      29.85S
WAUKESHA       PTSUNNY   79  63  57 SE14      29.84F HX  80
MILWAUKEE/TIMM CLOUDY    79  63  57 SE9       29.84F HX  80
RACINE         MOSUNNY   72  62  71 SE16G23   29.87F
BURLINGTON     CLOUDY    80  62  55 S9        29.83F HX  81
KENOSHA        PTSUNNY   74  64  71 SE18      29.86S
FOND DU LAC    CLOUDY    74  68  81 NE7       29.83F
SHEBOYGAN      CLOUDY    69  64  84 SE10      29.85F HAZE
WEST BEND      CLOUDY    75  68  78 NE8       29.84F
JUNEAU         MOSUNNY   75  68  77 NE6       29.83F
$$

LSZ147-162-272100-
LAKE SUPERIOR

STATION/POSITION TIME  TEMP    WIND        PRES    WAVE
                       AIR SEA DIR/SP/G            HT/PER
                 (UTC) (F)     (DEG/KT/KT) (MB)    (FT/S)
W MID LAKE BUOY  1850   40 38   10/ 10/ 16 1013.2F   0
DEVILS ISLAND    1900   46      30/ 16/ 17 1012.9F
PORT WING        1820   42      10/ 12/ 13 1012.9
SAXON HARBOR     1900   46      20/  4/  5 1012.5
$$

LMZ867-665-643>646-272100-
LAKE MICHIGAN

STATION/POSITION TIME  TEMP    WIND        PRES    WAVE
                       AIR SEA DIR/SP/G            HT/PER
                 (UTC) (F)     (DEG/KT/KT) (MB)    (FT/S)
CHAMBERS ISLAND  1900   59      CALM  /  2 1013.2S
N MID LAKE BUOY  1850   51 47  240/ 10/ 17 1012.9R   0
NORTHPORT PIER   1900   53     130/  3/  4 1012.9F
SISTER BAY       1920   63     170/  7/  9   N/A
ALGOMA LAKESHORE 1902          210/  3/  4   N/A
KEWAUNEE LAKESHO 1900   53     150/  4/  6 1012.1F
SHEBOYGAN LAKESH 1900   53     130/  9/ 10 1012.1R
PORT WASHINGTON  1900   63     140/  4/  5 1012.2F
S MID LAKE BUOY  1850   56 50  130/  8/  8 1012.3F   1/ 3
KENOSHA   LAKESH 1900   62     170/  9/ 13 1011.2F
$$

TC  - TEMPERATURE IN CELSIUS
VSB - VISIBILITY IN STATUTE MILES
WCI - WIND CHILL INDEX
HX  - HEAT INDEX





USA.gov is the U.S. government's official web portal to all federal, state and local government web resources and services.